EW8125 Weather Reports


Display with metric or nautical units.
time (UTC)temp
F
wind
direction
speed
MPH
gust
MPH
rain 1hr
in
rain 24hr
in
rain mn
in
humidity
%
barometer
mb
20260507162104 59 211 1.0 9.0 0.00 0.00 0.00 66 1013.6
20260507161803 59 209 1.0 9.0 0.00 0.00 0.00 64 1013.7
20260507161504 59 210 1.0 9.0 0.00 0.00 0.00 65 1013.7
20260507161414 59 211 1.0 9.0 0.00 0.00 0.00 63 1013.7
20260507160903 59 210 1.0 7.0 0.00 0.00 0.00 64 1013.6
20260507160603 59 208 2.0 8.0 0.00 0.00 0.00 64 1013.7
20260507160303 59 199 2.0 12.0 0.00 0.00 0.00 64 1013.7
20260507160003 59 199 2.0 12.0 0.00 0.00 0.00 65 1013.6
20260507155703 59 200 2.0 12.0 0.00 0.00 0.00 65 1013.6
20260507155403 59 205 2.0 8.0 0.00 0.00 0.00 66 1013.7
20260507155103 59 209 1.0 8.0 0.00 0.00 0.00 66 1013.7
20260507154803 59 204 1.0 6.0 0.00 0.00 0.00 65 1013.6
20260507154503 59 200 1.0 5.0 0.00 0.00 0.00 65 1013.7
20260507154413 59 198 1.0 5.0 0.00 0.00 0.00 67 1013.7
20260507153903 59 196 1.0 5.0 0.00 0.00 0.00 65 1013.7
20260507153603 59 223 0.0 4.0 0.00 0.00 0.00 67 1013.7
20260507153303 59 218 0.0 4.0 0.00 0.00 0.00 66 1013.7
20260507153215 59 242 0.0 4.0 0.00 0.00 0.00 66 1013.7
20260507152703 58 40 0.0 1.0 0.00 0.00 0.00 66 1013.7
20260507152403 58 52 0.0 2.0 0.00 0.00 0.00 67 1013.8
20260507152103 58 56 0.0 2.0 0.00 0.00 0.00 66 1013.7
20260507151804 58 61 0.0 2.0 0.00 0.00 0.00 66 1013.8
20260507151503 58 157 1.0 8.0 0.00 0.00 0.00 65 1013.9
20260507151203 59 199 0.0 8.0 0.00 0.00 0.00 65 1013.8
20260507151113 59 203 0.0 8.0 0.00 0.00 0.00 65 1013.7
20260507150603 59 191 0.0 8.0 0.00 0.00 0.00 66 1013.8
20260507150303 59 220 0.0 4.0 0.00 0.00 0.00 65 1013.7
20260507150213 59 221 0.0 4.0 0.00 0.00 0.00 64 1013.7
20260507145912 59 217 1.0 6.0 0.00 0.00 0.00 64 1013.8
20260507145403 59 214 0.0 6.0 0.00 0.00 0.00 63 1013.8
20260507145103 59 215 0.0 6.0 0.00 0.00 0.00 64 1013.8
20260507145016 59 223 0.0 2.0 0.00 0.00 0.00 65 1013.8
20260507144503 59 211 0.0 2.0 0.00 0.00 0.00 67 1013.8
20260507144203 58 238 0.0 7.0 0.00 0.00 0.00 69 1013.7
20260507144113 58 233 1.0 8.0 0.00 0.00 0.00 69 1013.8
20260507143603 58 217 1.0 8.0 0.00 0.00 0.00 68 1013.9
20260507143512 58 217 1.0 8.0 0.00 0.00 0.00 69 1013.9
20260507143212 58 200 1.0 8.0 0.00 0.00 0.00 66 1013.9
20260507142703 58 197 1.0 6.0 0.00 0.00 0.00 68 1014.0
20260507142403 57 215 1.0 6.0 0.00 0.00 0.00 69 1014.1
20260507142103 57 215 1.0 6.0 0.00 0.00 0.00 67 1014.1
20260507141803 57 210 1.0 6.0 0.00 0.00 0.00 68 1014.2
20260507141503 57 184 1.0 6.0 0.00 0.00 0.00 70 1014.2
20260507141203 56 155 1.0 6.0 0.00 0.00 0.00 69 1014.1
20260507140903 56 98 1.0 6.0 0.00 0.00 0.00 68 1014.2
20260507140604 56 49 0.0 4.0 0.00 0.00 0.00 67 1014.2
20260507140303 56 57 0.0 4.0 0.00 0.00 0.00 68 1014.2
20260507140214 56 58 0.0 4.0 0.00 0.00 0.00 69 1014.2
20260507135914 56 64 0.0 4.0 0.00 0.00 0.00 67 1014.2
20260507135614 56 66 0.0 4.0 0.00 0.00 0.00 67 1014.2
20260507135103 57 55 1.0 6.0 0.00 0.00 0.00 67 1014.2
20260507134803 57 45 1.0 6.0 0.00 0.00 0.00 66 1014.1
20260507134503 58 40 0.0 6.0 0.00 0.00 0.00 67 1014.2
20260507134203 58 40 0.0 4.0 0.00 0.00 0.00 68 1014.1
20260507134112 58 27 0.0 4.0 0.00 0.00 0.00 67 1014.2
20260507133812 58 213 1.0 4.0 0.00 0.00 0.00 65 1014.1
20260507133303 58 169 1.0 4.0 0.00 0.00 0.00 63 1014.2
20260507133003 58 162 1.0 4.0 0.00 0.00 0.00 63 1014.2
20260507132703 59 106 0.0 3.0 0.00 0.00 0.00 63 1014.2
20260507132403 59 97 0.0 3.0 0.00 0.00 0.00 67 1014.2
20260507132103 58 189 0.0 2.0 0.00 0.00 0.00 65 1014.3
20260507131803 58 188 0.0 4.0 0.00 0.00 0.00 65 1014.2
20260507131503 58 200 0.0 4.0 0.00 0.00 0.00 67 1014.3
20260507131203 57 200 0.0 4.0 0.00 0.00 0.00 67 1014.3
20260507130903 57 220 0.0 6.0 0.00 0.00 0.00 67 1014.4
20260507130812 57 213 0.0 6.0 0.00 0.00 0.00 67 1014.4
20260507130303 57 210 1.0 6.0 0.00 0.00 0.00 65 1014.3
20260507130003 58 202 1.0 4.0 0.00 0.00 0.00 64 1014.5
20260507125703 58 198 0.0 4.0 0.00 0.00 0.00 66 1014.3
20260507125403 58 197 0.0 4.0 0.00 0.00 0.00 66 1014.3
20260507125103 58 218 0.0 4.0 0.00 0.00 0.00 66 1014.4
20260507124803 58 218 0.0 5.0 0.00 0.00 0.00 64 1014.3
20260507124503 58 217 0.0 5.0 0.00 0.00 0.00 64 1014.3
20260507124203 58 217 0.0 5.0 0.00 0.00 0.00 63 1014.3
20260507123903 58 201 1.0 5.0 0.00 0.00 0.00 65 1014.4
20260507123814 58 197 0.0 5.0 0.00 0.00 0.00 65 1014.4
20260507123303 58 187 1.0 5.0 0.00 0.00 0.00 64 1014.4
20260507123003 58 187 1.0 6.0 0.00 0.00 0.00 62 1014.4
20260507122705 58 185 1.0 6.0 0.00 0.00 0.00 62 1014.4
20260507122403 58 182 1.0 6.0 0.00 0.00 0.00 60 1014.4
20260507122313 58 186 1.0 6.0 0.00 0.00 0.00 60 1014.4
20260507121803 58 229 0.0 2.0 0.00 0.00 0.00 66 1014.4
20260507121503 58 208 1.0 8.0 0.00 0.00 0.00 65 1014.3
20260507121203 58 218 1.0 8.0 0.00 0.00 0.00 62 1014.3
20260507120903 58 219 1.0 8.0 0.00 0.00 0.00 61 1014.5
20260507120603 58 274 0.0 4.0 0.00 0.00 0.00 61 1014.4
20260507120303 58 282 0.0 4.0 0.00 0.00 0.00 65 1014.4
20260507120003 58 276 0.0 4.0 0.00 0.00 0.00 62 1014.4
20260507115913 58 276 0.0 4.0 0.00 0.00 0.00 65 1014.4
20260507115405 58 69 0.0 1.0 0.00 0.00 0.00 67 1014.5
20260507115103 58 67 0.0 1.0 0.00 0.00 0.00 69 1014.6
20260507114803 58 67 0.0 1.0 0.00 0.00 0.00 69 1014.5
20260507114504 58 64 0.0 2.0 0.00 0.00 0.00 68 1014.5
20260507114203 57 64 0.0 2.0 0.00 0.00 0.00 70 1014.6
20260507113903 57 64 0.0 2.0 0.00 0.00 0.00 68 1014.6
20260507113603 57 66 0.0 2.0 0.00 0.00 0.00 68 1014.5
20260507113304 58 67 0.0 1.0 0.00 0.00 0.00 67 1014.6
20260507113003 58 67 0.0 2.0 0.00 0.00 0.00 67 1014.5
20260507112703 59 67 0.0 2.0 0.00 0.00 0.00 66 1014.5
20260507112403 59 67 0.0 2.0 0.00 0.00 0.00 64 1014.6
20260507112312 59 67 0.0 2.0 0.00 0.00 0.00 64 1014.6
20260507111803 60 31 0.0 1.0 0.00 0.00 0.00 65 1014.5
20260507111714 60 47 0.0 1.0 0.00 0.00 0.00 64 1014.6
20260507111203 60 70 0.0 2.0 0.00 0.00 0.00 65 1014.7
20260507110903 60 69 1.0 4.0 0.00 0.00 0.00 68 1014.7
20260507110603 60 73 1.0 4.0 0.00 0.00 0.00 66 1014.7
20260507110303 60 70 1.0 4.0 0.00 0.00 0.00 69 1014.8
20260507110003 59 72 1.0 4.0 0.00 0.00 0.00 69 1014.9
20260507105704 59 71 1.0 4.0 0.00 0.00 0.00 68 1014.9
20260507105403 59 80 1.0 3.0 0.00 0.00 0.00 68 1014.9
20260507105103 59 78 1.0 3.0 0.00 0.00 0.00 68 1015.0
20260507104803 59 90 1.0 3.0 0.00 0.00 0.00 68 1015.0
20260507104503 59 90 1.0 3.0 0.00 0.00 0.00 71 1015.1
20260507104414 59 90 1.0 3.0 0.00 0.00 0.00 71 1015.1
20260507103903 58 88 1.0 3.0 0.00 0.00 0.00 70 1015.1
20260507103603 58 70 1.0 4.0 0.00 0.00 0.00 74 1015.1
20260507103303 58 69 1.0 4.0 0.00 0.00 0.00 73 1015.1
20260507103003 58 70 1.0 4.0 0.00 0.00 0.00 71 1015.1
20260507102703 58 61 0.0 4.0 0.00 0.00 0.00 73 1015.1
20260507102403 57 60 1.0 3.0 0.00 0.00 0.00 73 1015.1
20260507102103 57 54 1.0 3.0 0.00 0.00 0.00 74 1015.1
20260507101803 56 57 1.0 5.0 0.00 0.00 0.00 77 1015.1
20260507101503 56 64 1.0 5.0 0.00 0.00 0.00 76 1015.1
20260507101413 56 65 1.0 5.0 0.00 0.00 0.00 77 1015.1
20260507100903 55 69 1.0 5.0 0.00 0.00 0.00 76 1015.1
20260507100603 54 71 0.0 3.0 0.00 0.00 0.00 77 1015.2
20260507100303 54 73 0.0 3.0 0.00 0.00 0.00 79 1015.2
20260507100003 53 70 0.0 3.0 0.00 0.00 0.00 79 1015.3
20260507095703 52 68 1.0 3.0 0.00 0.00 0.00 81 1015.3
20260507095612 52 67 1.0 3.0 0.00 0.00 0.00 81 1015.3
20260507095103 52 65 0.0 3.0 0.00 0.00 0.00 81 1015.3
20260507094803 51 72 0.0 3.0 0.00 0.00 0.00 82 1015.3
20260507094714 51 71 0.0 3.0 0.00 0.00 0.00 82 1015.3
20260507094203 50 86 0.0 1.0 0.00 0.00 0.00 83 1015.3
20260507093903 50 104 0.0 1.0 0.00 0.00 0.00 83 1015.3
20260507093603 50 104 0.0 1.0 0.00 0.00 0.00 83 1015.2
20260507093303 50 84 0.0 2.0 0.00 0.00 0.00 84 1015.2
20260507093003 50 82 0.0 2.0 0.00 0.00 0.00 83 1015.3
20260507092704 49 67 0.0 2.0 0.00 0.00 0.00 84 1015.3
20260507092403 49 68 0.0 2.0 0.00 0.00 0.00 84 1015.3
20260507092103 49 68 0.0 2.0 0.00 0.00 0.00 84 1015.3
20260507091803 49 68 0.0 2.0 0.00 0.00 0.00 84 1015.3
20260507091503 49 74 0.0 1.0 0.00 0.00 0.00 85 1015.3
20260507091413 49 75 0.0 1.0 0.00 0.00 0.00 85 1015.3
20260507091113 49 72 0.0 1.0 0.00 0.00 0.00 85 1015.3
20260507090603 49 68 0.0 2.0 0.00 0.00 0.00 85 1015.2
20260507090303 48 67 0.0 2.0 0.00 0.00 0.00 85 1015.2
20260507090004 48 67 0.0 2.0 0.00 0.00 0.00 84 1015.3
20260507085703 48 65 0.0 2.0 0.00 0.00 0.00 84 1015.4
20260507085403 48 55 0.0 1.0 0.00 0.00 0.00 85 1015.3
20260507085103 48 55 0.0 1.0 0.00 0.00 0.00 84 1015.4
20260507084803 48 55 0.0 1.0 0.00 0.00 0.00 85 1015.4
20260507084503 48 55 0.0 1.0 0.00 0.00 0.00 86 1015.4
20260507084203 48 55 0.0 1.0 0.00 0.00 0.00 86 1015.4
20260507083903 48 55 0.0 1.0 0.00 0.00 0.00 85 1015.5
20260507083603 48 55 0.0 1.0 0.00 0.00 0.00 85 1015.5
20260507083303 48 55 0.0 1.0 0.00 0.00 0.00 86 1015.6
20260507083003 47 55 0.0 1.0 0.00 0.00 0.00 86 1015.6
20260507082914 47 55 0.0 1.0 0.00 0.00 0.00 86 1015.6
20260507082403 47 57 0.0 2.0 0.00 0.00 0.00 87 1015.5
20260507082103 47 59 0.0 2.0 0.00 0.00 0.00 87 1015.4
20260507081803 47 64 0.0 1.0 0.00 0.00 0.00 87 1015.5
20260507081504 46 64 0.0 1.0 0.00 0.00 0.00 87 1015.4
20260507081203 46 64 0.0 1.0 0.00 0.00 0.00 87 1015.5
20260507080903 46 64 0.0 1.0 0.00 0.00 0.00 87 1015.5
20260507080812 46 64 0.0 1.0 0.00 0.00 0.00 87 1015.5
20260507080514 46 64 0.0 1.0 0.00 0.00 0.00 87 1015.4
20260507080003 46 64 0.0 1.0 0.00 0.00 0.00 87 1015.4
20260507075704 46 64 0.0 1.0 0.00 0.00 0.00 87 1015.4
20260507075404 46 64 0.0 1.0 0.00 0.00 0.00 87 1015.4
20260507075313 46 63 0.0 1.0 0.00 0.00 0.00 87 1015.4
20260507074803 46 0 0.0 0.0 0.00 0.00 0.00 87 1015.4
20260507074503 46 0 0.0 0.0 0.00 0.00 0.00 87 1015.3
20260507074413 46 0 0.0 0.0 0.00 0.00 0.00 87 1015.4
20260507073903 46 70 0.0 1.0 0.00 0.00 0.00 87 1015.4
20260507073604 46 70 0.0 1.0 0.00 0.00 0.00 88 1015.4
20260507073514 46 70 0.0 1.0 0.00 0.00 0.00 88 1015.4
20260507073003 46 70 0.0 1.0 0.00 0.00 0.00 88 1015.4
20260507072703 46 0 0.0 0.0 0.00 0.00 0.00 88 1015.4
20260507072403 46 70 0.0 1.0 0.00 0.00 0.00 88 1015.3
20260507072103 46 70 0.0 1.0 0.00 0.00 0.00 88 1015.3
20260507071803 46 70 0.0 1.0 0.00 0.00 0.00 88 1015.3
20260507071504 46 70 0.0 1.0 0.00 0.00 0.00 89 1015.2
20260507071203 45 70 0.0 1.0 0.00 0.00 0.00 89 1015.2
20260507070903 45 0 0.0 0.0 0.00 0.00 0.00 89 1015.2
20260507070814 45 0 0.0 0.0 0.00 0.00 0.00 89 1015.2
20260507070303 45 70 0.0 1.0 0.00 0.00 0.00 89 1015.2
20260507070004 45 70 0.0 1.0 0.00 0.00 0.00 89 1015.2
20260507065703 45 70 0.0 1.0 0.00 0.00 0.00 89 1015.2
20260507065403 45 0 0.0 0.0 0.00 0.00 0.00 89 1015.1
20260507065103 45 0 0.0 0.0 0.00 0.00 0.00 89 1015.1
20260507064803 45 0 0.0 0.0 0.00 0.00 0.00 89 1015.0
20260507064503 45 0 0.0 0.0 0.00 0.00 0.00 89 1015.0
20260507064203 45 0 0.0 0.0 0.00 0.00 0.00 89 1015.0
20260507063903 45 0 0.0 0.0 0.00 0.00 0.00 89 1015.1
20260507063603 45 0 0.0 0.0 0.00 0.00 0.00 90 1015.0
20260507063303 44 0 0.0 0.0 0.00 0.00 0.00 90 1015.0
20260507063003 44 0 0.0 0.0 0.00 0.00 0.00 90 1015.0
20260507062913 44 0 0.0 0.0 0.00 0.00 0.00 90 1015.0
20260507062403 44 0 0.0 0.0 0.00 0.00 0.00 90 1015.0
20260507062103 44 0 0.0 0.0 0.00 0.00 0.00 90 1015.0
20260507061804 44 0 0.0 0.0 0.00 0.00 0.00 90 1015.0
20260507061503 44 0 0.0 0.0 0.00 0.00 0.00 90 1015.0
20260507061203 44 0 0.0 0.0 0.00 0.00 0.00 90 1015.0
20260507060904 44 0 0.0 0.0 0.00 0.00 0.00 90 1015.0
20260507060603 44 0 0.0 0.0 0.00 0.00 0.00 90 1015.0
20260507060303 44 0 0.0 0.0 0.00 0.00 0.00 90 1014.9
20260507060003 44 0 0.0 0.0 0.00 0.00 0.00 90 1015.0
20260507055703 44 0 0.0 0.0 0.00 0.00 0.00 90 1014.9
20260507055403 44 0 0.0 0.0 0.00 0.00 0.00 90 1014.9
20260507055103 44 0 0.0 0.0 0.00 0.00 0.00 90 1014.9
20260507054803 44 0 0.0 0.0 0.00 0.00 0.00 90 1015.0
20260507054503 44 0 0.0 0.0 0.00 0.00 0.00 90 1014.9
20260507054203 44 0 0.0 0.0 0.00 0.00 0.00 90 1015.0
20260507053903 44 0 0.0 0.0 0.00 0.00 0.00 90 1014.9
20260507053603 44 0 0.0 0.0 0.00 0.00 0.00 90 1014.9
20260507053303 44 0 0.0 0.0 0.00 0.00 0.00 90 1014.9
20260507053213 44 0 0.0 0.0 0.00 0.00 0.00 90 1014.9
20260507052703 44 0 0.0 0.0 0.00 0.00 0.00 90 1014.8
20260507052403 44 0 0.0 0.0 0.00 0.00 0.00 90 1014.9
20260507052104 44 0 0.0 0.0 0.00 0.00 0.00 90 1014.9
20260507051803 44 0 0.0 0.0 0.00 0.00 0.00 90 1014.9
20260507051503 44 0 0.0 0.0 0.00 0.00 0.00 90 1014.8
20260507051203 44 0 0.0 0.0 0.00 0.00 0.00 90 1014.9
20260507050903 44 0 0.0 0.0 0.00 0.00 0.00 90 1014.8
20260507050603 44 0 0.0 0.0 0.00 0.00 0.00 90 1014.8
20260507050303 44 0 0.0 0.0 0.00 0.00 0.00 90 1014.8
20260507050003 44 0 0.0 0.0 0.00 0.00 0.00 90 1014.8
20260507045703 44 0 0.0 0.0 0.00 0.00 0.00 90 1014.8
20260507045403 44 0 0.0 0.0 0.00 0.00 0.00 90 1014.8
20260507045103 44 0 0.0 0.0 0.00 0.00 0.00 90 1014.8
20260507044803 44 0 0.0 0.0 0.00 0.00 0.00 90 1014.8
20260507044503 44 0 0.0 0.0 0.00 0.00 0.00 90 1014.8
20260507044203 44 0 0.0 0.0 0.00 0.00 0.00 90 1014.8
20260507043903 44 0 0.0 0.0 0.00 0.00 0.00 90 1014.8
20260507043815 44 0 0.0 0.0 0.00 0.00 0.00 90 1014.7
20260507043303 44 0 0.0 0.0 0.00 0.00 0.00 89 1014.7
20260507043003 44 0 0.0 0.0 0.00 0.00 0.00 90 1014.7
20260507042703 44 0 0.0 0.0 0.00 0.00 0.00 90 1014.6
20260507042403 44 0 0.0 0.0 0.00 0.00 0.00 90 1014.6
20260507042103 44 0 0.0 0.0 0.00 0.00 0.00 90 1014.6
20260507042014 44 0 0.0 0.0 0.00 0.00 0.00 90 1014.6
20260507041503 44 0 0.0 0.0 0.00 0.00 0.00 90 1014.5
20260507041203 44 0 0.0 0.0 0.00 0.00 0.00 90 1014.5
20260507040903 44 0 0.0 0.0 0.00 0.00 0.00 90 1014.6
20260507040603 44 0 0.0 0.0 0.00 0.00 0.00 89 1014.5
20260507040303 44 0 0.0 0.0 0.00 0.00 0.00 90 1014.6
20260507040003 44 0 0.0 0.0 0.00 0.00 0.00 90 1014.5
20260507035703 44 0 0.0 0.0 0.00 0.00 0.00 90 1014.5
20260507035403 44 0 0.0 0.0 0.00 0.00 0.00 90 1014.5
20260507035103 44 0 0.0 0.0 0.00 0.00 0.00 90 1014.5
20260507034804 44 0 0.0 0.0 0.00 0.00 0.00 90 1014.6
20260507034503 44 0 0.0 0.0 0.00 0.00 0.00 90 1014.6
20260507034203 44 0 0.0 0.0 0.00 0.00 0.00 89 1014.5
20260507033903 44 0 0.0 0.0 0.00 0.00 0.00 89 1014.6
20260507033603 44 0 0.0 0.0 0.00 0.00 0.00 89 1014.5
20260507033303 44 0 0.0 0.0 0.00 0.00 0.00 89 1014.6
20260507033003 44 0 0.0 0.0 0.00 0.00 0.00 89 1014.5
20260507032703 44 0 0.0 0.0 0.00 0.00 0.00 89 1014.6
20260507032403 44 0 0.0 0.0 0.00 0.00 0.00 89 1014.6
20260507032103 44 0 0.0 0.0 0.00 0.00 0.00 89 1014.6
20260507031803 44 0 0.0 0.0 0.00 0.00 0.00 89 1014.7
20260507031503 44 0 0.0 0.0 0.00 0.00 0.00 89 1014.6
20260507031413 44 0 0.0 0.0 0.00 0.00 0.00 89 1014.7
20260507030904 44 0 0.0 0.0 0.00 0.00 0.00 89 1014.7
20260507030812 44 0 0.0 0.0 0.00 0.00 0.00 89 1014.7
20260507030303 44 0 0.0 0.0 0.00 0.00 0.00 89 1014.7
20260507030003 44 0 0.0 0.0 0.00 0.00 0.00 89 1014.8
20260507025703 44 0 0.0 0.0 0.00 0.00 0.00 89 1014.8
20260507025403 44 0 0.0 0.0 0.00 0.00 0.00 89 1014.7
20260507025103 44 0 0.0 0.0 0.00 0.00 0.00 88 1014.7
20260507024803 44 0 0.0 0.0 0.00 0.00 0.00 88 1014.7
20260507024503 44 0 0.0 0.0 0.00 0.00 0.00 88 1014.6
20260507024203 44 0 0.0 0.0 0.00 0.00 0.00 89 1014.5
20260507023903 44 0 0.0 0.0 0.00 0.00 0.00 89 1014.6
20260507023812 44 0 0.0 0.0 0.00 0.00 0.00 89 1014.6
20260507023303 44 0 0.0 0.0 0.00 0.00 0.00 88 1014.7
20260507023004 44 0 0.0 0.0 0.00 0.00 0.00 88 1014.7
20260507022913 44 0 0.0 0.0 0.00 0.00 0.00 88 1014.6
20260507022403 44 0 0.0 0.0 0.00 0.00 0.00 88 1014.7
20260507022103 44 0 0.0 0.0 0.00 0.00 0.00 88 1014.7
20260507021804 44 74 0.0 1.0 0.00 0.00 0.00 88 1014.7
20260507021503 44 74 0.0 1.0 0.00 0.00 0.00 88 1014.7
20260507021204 44 74 0.0 1.0 0.00 0.00 0.00 88 1014.6
20260507020903 44 0 0.0 0.0 0.00 0.00 0.00 88 1014.7
20260507020603 44 0 0.0 0.0 0.00 0.00 0.00 88 1014.7
20260507020303 44 0 0.0 0.0 0.00 0.00 0.00 88 1014.6
20260507020214 44 0 0.0 0.0 0.00 0.00 0.00 88 1014.6
20260507015703 44 0 0.0 0.0 0.00 0.00 0.00 88 1014.7
20260507015613 44 0 0.0 0.0 0.00 0.00 0.00 88 1014.7
20260507015103 44 0 0.0 0.0 0.00 0.00 0.00 88 1014.6
20260507014803 45 0 0.0 0.0 0.00 0.00 0.00 88 1014.7
20260507014713 44 0 0.0 0.0 0.00 0.00 0.00 88 1014.7
20260507014203 44 0 0.0 0.0 0.00 0.00 0.00 87 1014.7
20260507013903 45 74 0.0 1.0 0.00 0.00 0.00 87 1014.7
20260507013603 45 74 0.0 2.0 0.00 0.00 0.00 87 1014.6
20260507013303 45 72 0.0 2.0 0.00 0.00 0.00 87 1014.7
20260507013213 45 72 0.0 2.0 0.00 0.00 0.00 87 1014.7
20260507012915 45 72 0.0 2.0 0.00 0.00 0.00 87 1014.7
20260507012403 45 77 0.0 1.0 0.00 0.00 0.00 87 1014.7
20260507012313 45 77 0.0 1.0 0.00 0.00 0.00 87 1014.8
20260507011804 45 67 0.0 2.0 0.00 0.00 0.00 87 1014.8
20260507011503 45 65 0.0 2.0 0.00 0.00 0.00 87 1014.8
20260507011203 45 46 0.0 2.0 0.00 0.00 0.00 87 1014.8
20260507010603 45 60 0.0 1.0 0.00 0.00 0.00 87 1014.8
20260507010303 45 60 0.0 1.0 0.00 0.00 0.00 87 1014.8
20260507010003 45 60 0.0 1.0 0.00 0.00 0.00 87 1014.8
20260507005704 45 60 0.0 1.0 0.00 0.00 0.00 86 1014.7
20260507005403 45 60 0.0 1.0 0.00 0.00 0.00 86 1014.7
20260507005103 45 60 0.0 1.0 0.00 0.00 0.00 86 1014.7
20260507004803 45 74 0.0 1.0 0.00 0.00 0.00 86 1014.6
20260507004503 45 89 0.0 2.0 0.00 0.00 0.00 86 1014.7
20260507004203 45 90 0.0 2.0 0.00 0.00 0.00 86 1014.7
20260507003903 45 83 0.0 2.0 0.00 0.00 0.00 86 1014.7
20260507003603 45 72 0.0 1.0 0.00 0.00 0.00 86 1014.7
20260507003303 45 77 0.0 1.0 0.00 0.00 0.00 86 1014.7
20260507003003 45 81 0.0 1.0 0.00 0.00 0.00 86 1014.7
20260507002703 45 81 0.0 1.0 0.00 0.00 0.00 86 1014.8
20260507002613 45 81 0.0 1.0 0.00 0.00 0.00 86 1014.7
20260507002103 45 81 0.0 1.0 0.00 0.00 0.00 86 1014.8
20260507001803 45 81 0.0 1.0 0.00 0.00 0.00 86 1014.9
20260507001503 45 80 0.0 1.0 0.00 0.00 0.00 86 1014.8
20260507001203 46 79 0.0 1.0 0.00 0.00 0.00 86 1014.9
20260507000903 46 78 0.0 1.0 0.00 0.00 0.00 86 1014.9
20260507000603 46 78 0.0 1.0 0.00 0.00 0.00 86 1014.9
20260507000306 46 78 0.0 1.0 0.00 0.00 0.00 86 1014.9
20260507000003 46 78 0.0 1.0 0.00 0.00 0.00 86 1014.9
20260506235913 46 78 0.0 1.0 0.00 0.00 0.00 86 1014.9
20260506235403 46 79 0.0 1.0 0.00 0.00 0.00 85 1014.9
20260506235103 46 79 0.0 1.0 0.00 0.00 0.00 85 1014.9
20260506234803 46 79 0.0 1.0 0.00 0.00 0.00 85 1014.9
20260506234504 46 79 0.0 1.0 0.00 0.00 0.00 85 1014.9
20260506234203 46 79 0.0 1.0 0.00 0.00 0.00 85 1014.8
20260506233903 46 79 0.0 1.0 0.00 0.00 0.00 85 1014.9
20260506233603 46 77 0.0 1.0 0.00 0.00 0.00 85 1014.8
20260506233303 46 73 0.0 2.0 0.00 0.00 0.00 85 1014.8
20260506233003 46 74 0.0 2.0 0.00 0.00 0.00 85 1014.8
20260506232703 46 80 0.0 3.0 0.00 0.00 0.00 85 1014.8
20260506232403 46 81 0.0 3.0 0.00 0.00 0.00 85 1014.9
20260506232103 46 77 0.0 3.0 0.00 0.00 0.00 85 1014.8
20260506231803 46 74 0.0 3.0 0.00 0.00 0.00 84 1014.8
20260506231505 46 58 0.0 1.0 0.00 0.00 0.00 84 1014.8
20260506231413 46 59 0.0 1.0 0.00 0.00 0.00 84 1014.8
20260506230903 46 66 0.0 1.0 0.00 0.00 0.00 84 1014.7
20260506230603 46 66 0.0 1.0 0.00 0.00 0.00 84 1014.8
20260506230513 46 66 0.0 1.0 0.00 0.00 0.00 84 1014.8
20260506230004 46 66 0.0 1.0 0.00 0.00 0.00 83 1014.7
20260506225703 47 66 0.0 1.0 0.00 0.00 0.00 83 1014.7
20260506225403 47 77 0.0 4.0 0.00 0.00 0.00 83 1014.7
20260506225103 47 79 0.0 4.0 0.00 0.00 0.00 83 1014.6
20260506224803 47 79 0.0 4.0 0.00 0.00 0.00 83 1014.5
20260506224713 47 79 0.0 4.0 0.00 0.00 0.00 83 1014.6
20260506224203 47 68 0.0 2.0 0.00 0.00 0.00 82 1014.7
20260506223903 47 69 0.0 2.0 0.00 0.00 0.00 82 1014.6
20260506223604 47 77 0.0 3.0 0.00 0.00 0.00 82 1014.5
20260506223303 47 76 0.0 3.0 0.00 0.00 0.00 82 1014.6
20260506223003 47 78 0.0 4.0 0.00 0.00 0.00 81 1014.6
20260506222703 47 71 0.0 4.0 0.00 0.00 0.00 82 1014.5
20260506222403 47 74 0.0 4.0 0.00 0.00 0.00 81 1014.5
20260506222314 47 77 0.0 4.0 0.00 0.00 0.00 81 1014.5
20260506222013 47 75 0.0 2.0 0.00 0.00 0.00 81 1014.6
20260506221504 47 66 0.0 4.0 0.00 0.00 0.00 81 1014.6
20260506221203 48 60 0.0 4.0 0.00 0.00 0.00 80 1014.5
20260506221113 48 59 0.0 4.0 0.00 0.00 0.00 80 1014.5
20260506220603 48 70 0.0 3.0 0.00 0.00 0.00 80 1014.5
20260506220303 48 68 0.0 4.0 0.00 0.00 0.00 80 1014.5
20260506220003 48 70 0.0 4.0 0.00 0.00 0.00 80 1014.5
20260506215703 48 70 0.0 4.0 0.00 0.00 0.00 80 1014.6
20260506215403 48 78 0.0 4.0 0.00 0.00 0.00 80 1014.5
20260506215103 48 88 0.0 4.0 0.00 0.00 0.00 79 1014.5
20260506214803 48 83 0.0 4.0 0.00 0.00 0.00 79 1014.4
20260506214504 48 82 0.0 4.0 0.00 0.00 0.00 79 1014.5
20260506214203 48 72 0.0 1.0 0.00 0.00 0.00 79 1014.4
20260506213903 48 74 0.0 1.0 0.00 0.00 0.00 79 1014.4
20260506213603 48 81 0.0 2.0 0.00 0.00 0.00 79 1014.4
20260506213303 48 83 0.0 2.0 0.00 0.00 0.00 79 1014.4
20260506213003 48 84 0.0 2.0 0.00 0.00 0.00 78 1014.3
20260506212703 48 90 0.0 2.0 0.00 0.00 0.00 79 1014.3
20260506212403 48 110 0.0 2.0 0.00 0.00 0.00 78 1014.3
20260506212103 48 107 0.0 2.0 0.00 0.00 0.00 78 1014.3
20260506211804 48 105 0.0 2.0 0.00 0.00 0.00 78 1014.3
20260506211713 48 105 0.0 2.0 0.00 0.00 0.00 78 1014.2
20260506211203 48 100 0.0 1.0 0.00 0.00 0.00 78 1014.3
20260506211112 48 100 0.0 1.0 0.00 0.00 0.00 78 1014.3
20260506210603 48 121 0.0 1.0 0.00 0.00 0.00 77 1014.3
20260506210303 48 91 0.0 3.0 0.00 0.00 0.00 77 1014.1
20260506210003 48 89 0.0 3.0 0.00 0.00 0.00 76 1014.2
20260506205703 48 82 0.0 3.0 0.00 0.00 0.00 76 1014.2
20260506205403 48 71 0.0 2.0 0.00 0.00 0.00 76 1014.2
20260506205103 48 69 0.0 2.0 0.00 0.00 0.00 76 1014.1
20260506204803 48 68 0.0 2.0 0.00 0.00 0.00 75 1014.1
20260506204503 48 76 0.0 2.0 0.00 0.00 0.00 75 1014.2
20260506204203 48 77 0.0 2.0 0.00 0.00 0.00 75 1014.1
20260506203903 48 80 0.0 2.0 0.00 0.00 0.00 75 1014.1
20260506203603 48 87 0.0 2.0 0.00 0.00 0.00 74 1014.1
20260506203303 49 64 0.0 1.0 0.00 0.00 0.00 75 1014.0
20260506203214 49 43 0.0 1.0 0.00 0.00 0.00 75 1014.0
20260506202703 49 15 0.0 1.0 0.00 0.00 0.00 74 1013.9
20260506202403 49 55 0.0 1.0 0.00 0.00 0.00 74 1013.9
20260506202103 49 69 0.0 1.0 0.00 0.00 0.00 73 1013.9
20260506201803 49 69 0.0 1.0 0.00 0.00 0.00 73 1014.0
20260506201504 49 75 0.0 1.0 0.00 0.00 0.00 73 1013.9
20260506201203 49 73 0.0 3.0 0.00 0.00 0.00 72 1013.9
20260506200903 49 76 0.0 3.0 0.00 0.00 0.00 71 1013.9
20260506200603 50 75 0.0 3.0 0.00 0.00 0.00 71 1013.9
20260506200303 50 64 0.0 3.0 0.00 0.00 0.00 70 1013.8
20260506200213 50 70 0.0 1.0 0.00 0.00 0.00 70 1013.8
20260506195913 50 49 0.0 1.0 0.00 0.00 0.00 70 1013.8
20260506195403 50 73 0.0 1.0 0.00 0.00 0.00 69 1013.7
20260506195103 50 82 0.0 2.0 0.00 0.00 0.00 69 1013.7
20260506194803 50 80 0.0 2.0 0.00 0.00 0.00 69 1013.7
20260506194712 50 79 0.0 2.0 0.00 0.00 0.00 69 1013.6
20260506194203 50 61 0.0 3.0 0.00 0.00 0.00 70 1013.6
20260506194114 50 61 0.0 3.0 0.00 0.00 0.00 69 1013.6
20260506193603 51 58 0.0 3.0 0.00 0.00 0.00 71 1013.6
20260506193303 51 61 0.0 3.0 0.00 0.00 0.00 70 1013.5
20260506193213 51 0 0.0 0.0 0.00 0.00 0.00 69 1013.6
20260506192703 51 0 0.0 0.0 0.00 0.00 0.00 66 1013.6
20260506192403 51 81 0.0 1.0 0.00 0.00 0.00 66 1013.5
20260506192312 51 81 0.0 1.0 0.00 0.00 0.00 66 1013.5
20260506192012 51 81 0.0 1.0 0.00 0.00 0.00 67 1013.6
20260506191203 51 0 0.0 0.0 0.00 0.00 0.00 67 1013.6
20260506191114 52 0 0.0 0.0 0.00 0.00 0.00 68 1013.5
20260506190603 52 0 0.0 0.0 0.00 0.00 0.00 69 1013.4
20260506190303 52 81 0.0 1.0 0.00 0.00 0.00 67 1013.4
20260506190004 52 81 0.0 1.0 0.00 0.00 0.00 66 1013.4
20260506185913 52 81 0.0 1.0 0.00 0.00 0.00 66 1013.5
20260506185615 52 66 0.0 1.0 0.00 0.00 0.00 65 1013.3
20260506185104 52 54 0.0 3.0 0.00 0.00 0.00 64 1013.3
20260506184803 53 55 0.0 3.0 0.00 0.00 0.00 63 1013.4
20260506184503 53 70 0.0 3.0 0.00 0.00 0.00 63 1013.3
20260506184203 53 75 0.0 4.0 0.00 0.00 0.00 63 1013.2
20260506183903 53 78 0.0 4.0 0.00 0.00 0.00 61 1013.3
20260506183603 53 78 1.0 4.0 0.00 0.00 0.00 60 1013.3
20260506183303 53 76 0.0 3.0 0.00 0.00 0.00 60 1013.3
20260506183003 53 72 0.0 3.0 0.00 0.00 0.00 60 1013.3
20260506182913 54 72 0.0 3.0 0.00 0.00 0.00 59 1013.3
20260506182612 54 45 0.0 1.0 0.00 0.00 0.00 61 1013.3
20260506182103 54 39 0.0 2.0 0.00 0.00 0.00 60 1013.2
20260506181803 54 39 0.0 2.0 0.00 0.00 0.00 62 1013.3
20260506181503 54 44 0.0 2.0 0.00 0.00 0.00 60 1013.2
20260506181203 54 51 0.0 2.0 0.00 0.00 0.00 59 1013.2
20260506180903 55 63 0.0 1.0 0.00 0.00 0.00 59 1013.2
20260506180813 55 63 0.0 1.0 0.00 0.00 0.00 59 1013.2
20260506180303 55 54 0.0 2.0 0.00 0.00 0.00 61 1013.2
20260506180004 55 53 0.0 2.0 0.00 0.00 0.00 61 1013.1
20260506175912 55 53 0.0 2.0 0.00 0.00 0.00 61 1013.1
20260506175403 55 53 0.0 2.0 0.00 0.00 0.00 57 1013.2
20260506175103 55 52 0.0 1.0 0.00 0.00 0.00 59 1013.0
20260506174804 55 59 0.0 2.0 0.00 0.00 0.00 60 1013.1
20260506174714 55 59 0.0 2.0 0.00 0.00 0.00 60 1013.1
20260506174203 55 65 0.0 2.0 0.00 0.00 0.00 57 1013.1
20260506173904 55 70 0.0 2.0 0.00 0.00 0.00 58 1013.2
20260506173603 55 94 0.0 1.0 0.00 0.00 0.00 57 1013.2
20260506173303 56 94 0.0 1.0 0.00 0.00 0.00 57 1013.1
20260506173003 56 0 0.0 0.0 0.00 0.00 0.00 61 1013.0
20260506172912 56 0 0.0 0.0 0.00 0.00 0.00 61 1013.0
20260506172614 56 94 0.0 1.0 0.00 0.00 0.00 62 1013.1
20260506172103 56 94 0.0 1.0 0.00 0.00 0.00 63 1013.1
20260506172013 55 94 0.0 1.0 0.00 0.00 0.00 61 1013.1
20260506171503 56 94 0.0 1.0 0.00 0.00 0.00 59 1013.1
20260506171203 56 94 0.0 1.0 0.00 0.00 0.00 60 1013.1
20260506170903 56 94 0.0 1.0 0.00 0.00 0.00 60 1013.1
20260506170603 56 94 0.0 1.0 0.00 0.00 0.00 59 1013.1
20260506170303 56 95 0.0 1.0 0.00 0.00 0.00 58 1013.1
20260506170212 56 95 0.0 1.0 0.00 0.00 0.00 60 1013.1
20260506165703 56 95 0.0 1.0 0.00 0.00 0.00 60 1013.1
20260506165403 56 95 0.0 1.0 0.00 0.00 0.00 58 1013.0
20260506165103 56 94 0.0 1.0 0.00 0.00 0.00 58 1013.1
20260506164803 56 91 0.0 1.0 0.00 0.00 0.00 58 1013.1
20260506164503 56 91 0.0 1.0 0.00 0.00 0.00 57 1013.1
20260506164203 56 90 0.0 1.0 0.00 0.00 0.00 57 1013.1
20260506163903 56 90 0.0 1.0 0.00 0.00 0.00 58 1013.0
20260506163603 56 90 0.0 1.0 0.00 0.00 0.00 57 1013.1
20260506163303 56 90 0.0 1.0 0.00 0.00 0.00 58 1013.1
20260506163003 56 90 0.0 1.0 0.00 0.00 0.00 58 1013.1
20260506162703 56 90 0.0 1.0 0.00 0.00 0.00 57 1013.0
20260506162403 57 91 0.0 1.0 0.00 0.00 0.00 55 1013.0